Location: Dampvalley
(47.9094°N, 6.1967°E)
Time: 03:39:59
(UTC+00:00)

AO-109 - Pass Details

Date: 02 December 2021
Orbit: 479 x 514 km, 60.7° (Epoch: 28 January)

Event Time Altitude Azimuth Distance (km) Brightness Sun altitude
Exits shadow 03:49:07 12° 53° (NE) 1,530 ? -32.0°
Drops below altitude 10° 03:49:40 10° 60° (ENE) 1,660 ? -31.9°
Sets 03:52:27 0° 83° (E) 2,537 ? -31.4°
